Volver al catálogo

STARLINK-30413

ActivoComunicacionesVLEO
NORAD 57814·PAYLOAD·🇺🇸 United States

Lanzado Sep 9, 2023 desde Cape Canaveral Space Force Station

Loading…

Próximos Pases (próximas 24 horas)

TLE

ActualizadoSource: CelesTrak SupGP

Época: Sep 15, 2026, 03:21 UTC

1 57814C 23138G   26258.14006944 -.00049783  00000+0 -18032-2 0  2589
2 57814  42.9990 244.7520 0001249 268.2663 200.4138 15.27602381    17

Sigue STARLINK-30413 en tiempo real con AllMySat

Download on the App Store